Location: Bouchavesnes-Bergen
(49.9859°N, 2.9203°E)
Time: 23:13:22
(UTC+00:00)

ISS - Pass Details

Date: 06 December 2023
Orbit: 414 x 422 km, 51.6° (Epoch: 27 February)

Event Time Altitude Azimuth Distance (km) Brightness Sun altitude
Rises 16:21:20 0° 287° (WNW) 2,407 0.8 -5.5°
Reaches altitude 10° 16:23:35 10° 277° (W) 1,543 0.1 -5.8°
Maximum altitude 16:26:42 31° 213° (SSW) 785 -1.6 -6.2°
Drops below altitude 10° 16:29:50 10° 149° (SSE) 1,549 -0.9 -6.7°
Sets 16:32:05 0° 139° (SE) 2,420 0.0 -7.0°
